contact:dominique.lefevre@mio.osupytheas.fr, maurice.libes@osupytheas.fr
Project:EMSO Ligure-ouest http://www.emso-fr.org/EMSO-France
Sensor Aquadopp, line 04 Serial AQD8517 
DOI : "https://doi.org/10.17882/74513; https://doi.org/10.17882/83244" 
Title:EMSO Ligure Ouest : Data ligne ALBATROSS capteur AQUADOPP - deploiement 2021
Id,Date,Profondeur,Latitude,Longitude,X_East,Y_North,Z_Up,Amplitude_X,Amplitude_Y,Amplitude_Z,Batterie,SoundSpeed,Heading,Pitch,Roll,Pressure,Temperature,Speed,Direction
, , m, degrees North, degrees East, m.s-1, m.s-1,m.s-1, 1, 1, 1, Volt, m.s-1, degree, degree, degree, dbar, degree_C, m.s-1, degree
04,2022-03-02T21:30:00,1000.0,42.79,6.0312,0.008,0.003,-0.001,65.0,66.0,64.0,12.3,1504.7,324.5,-0.5,-0.4,967.337,13.3,0.008,69.4
04,2022-03-02T22:00:00,1000.0,42.79,6.0312,0.007,0.007,-0.006,67.0,67.0,63.0,12.3,1504.8,323.8,-0.5,-0.4,967.296,13.31,0.009,45.0
04,2022-03-02T22:30:00,1000.0,42.79,6.0312,0.0,0.008,-0.002,65.0,66.0,63.0,12.3,1504.8,326.9,-0.5,-0.4,967.266,13.31,0.008,0.0
04,2022-03-02T23:00:00,1000.0,42.79,6.0312,0.017,0.002,-0.001,68.0,66.0,66.0,12.3,1504.8,324.3,-0.5,-0.4,967.23,13.31,0.017,83.3
04,2022-03-02T23:30:00,1000.0,42.79,6.0312,0.004,0.001,-0.001,64.0,66.0,63.0,12.3,1504.8,320.2,-0.5,-0.4,967.253,13.32,0.004,76.0
04,2022-03-03T00:00:00,1000.0,42.79,6.0312,0.0,-0.016,0.003,66.0,69.0,67.0,12.3,1504.8,306.4,-0.5,-0.4,967.248,13.32,0.016,180.0
04,2022-03-03T00:30:00,1000.0,42.79,6.0312,0.005,-0.015,0.004,65.0,67.0,66.0,12.3,1504.8,300.5,-0.5,-0.4,967.202,13.31,0.015,161.6
04,2022-03-03T01:00:00,1000.0,42.79,6.0312,0.005,-0.015,-0.01,66.0,67.0,65.0,12.3,1504.7,296.4,-0.5,-0.4,967.191,13.3,0.015,161.6
04,2022-03-03T01:30:00,1000.0,42.79,6.0312,-0.002,-0.025,0.0,66.0,69.0,65.0,12.3,1504.7,295.3,-0.5,-0.4,967.226,13.3,0.025,184.6
04,2022-03-03T02:00:00,1000.0,42.79,6.0312,0.0,-0.025,0.007,67.0,66.0,66.0,12.3,1504.7,298.3,-0.5,-0.3,967.164,13.3,0.025,180.0
04,2022-03-03T02:30:00,1000.0,42.79,6.0312,0.002,-0.017,-0.012,66.0,68.0,66.0,12.3,1504.7,302.5,-0.4,-0.3,967.198,13.3,0.017,173.3
04,2022-03-03T03:00:00,1000.0,42.79,6.0312,-0.002,-0.015,0.009,67.0,67.0,65.0,12.3,1504.8,303.5,-0.4,-0.3,967.201,13.31,0.015,187.6
04,2022-03-03T03:30:00,1000.0,42.79,6.0312,0.005,-0.023,-0.009,66.0,68.0,65.0,12.3,1504.8,286.6,-0.4,-0.3,967.255,13.31,0.023,167.7
04,2022-03-03T04:00:00,1000.0,42.79,6.0312,-0.005,-0.019,-0.008,66.0,68.0,65.0,12.3,1504.8,283.7,-0.4,-0.3,967.243,13.31,0.019,194.7
04,2022-03-03T04:30:00,1000.0,42.79,6.0312,-0.017,-0.027,0.01,66.0,68.0,64.0,12.3,1504.8,288.9,-0.4,-0.3,967.312,13.31,0.031,212.2
04,2022-03-03T05:00:00,1000.0,42.79,6.0312,-0.013,-0.017,0.003,65.0,70.0,62.0,12.3,1504.7,281.1,-0.4,-0.3,967.359,13.3,0.021,217.4
04,2022-03-03T05:30:00,1000.0,42.79,6.0312,-0.003,-0.021,-0.019,65.0,69.0,66.0,12.3,1504.7,280.2,-0.5,-0.4,967.395,13.3,0.021,188.1
04,2022-03-03T06:00:00,1000.0,42.79,6.0312,-0.024,-0.019,-0.006,65.0,69.0,65.0,12.3,1504.7,281.0,-0.5,-0.4,967.404,13.3,0.03,231.6
04,2022-03-03T06:30:00,1000.0,42.79,6.0312,-0.022,-0.022,0.005,67.0,70.0,66.0,12.3,1504.7,283.6,-0.5,-0.4,967.471,13.3,0.031,225.0
04,2022-03-03T07:00:00,1000.0,42.79,6.0312,-0.01,-0.015,-0.002,65.0,68.0,65.0,12.3,1504.7,287.6,-0.5,-0.4,967.469,13.3,0.018,213.7
04,2022-03-03T07:30:00,1000.0,42.79,6.0312,-0.027,-0.022,0.003,67.0,69.0,67.0,12.3,1504.7,292.0,-0.5,-0.4,967.523,13.29,0.034,230.8
04,2022-03-03T08:00:00,1000.0,42.79,6.0312,-0.038,-0.009,-0.004,67.0,69.0,67.0,12.3,1504.7,293.2,-0.5,-0.4,967.53,13.3,0.039,256.7
04,2022-03-03T08:30:00,1000.0,42.79,6.0312,-0.037,0.001,0.03,66.0,68.0,65.0,12.3,1504.7,298.0,-0.5,-0.4,967.513,13.3,0.037,271.5
04,2022-03-03T09:00:00,1000.0,42.79,6.0312,-0.032,-0.002,-0.023,66.0,70.0,66.0,12.3,1504.7,302.2,-0.5,-0.4,967.502,13.3,0.032,266.4
04,2022-03-03T09:30:00,1000.0,42.79,6.0312,-0.029,0.023,-0.006,67.0,69.0,65.0,12.3,1504.7,305.3,-0.5,-0.4,967.489,13.29,0.037,308.4
04,2022-03-03T10:00:00,1000.0,42.79,6.0312,-0.02,0.017,-0.004,67.0,69.0,66.0,12.3,1504.7,305.2,-0.5,-0.4,967.457,13.29,0.026,310.4
04,2022-03-03T10:30:00,1000.0,42.79,6.0312,-0.015,0.008,-0.006,66.0,69.0,66.0,12.3,1504.7,304.1,-0.5,-0.4,967.473,13.29,0.017,298.1
04,2022-03-03T11:00:00,1000.0,42.79,6.0312,-0.008,0.009,-0.007,67.0,66.0,66.0,12.3,1504.7,304.2,-0.5,-0.4,967.433,13.29,0.012,318.4
04,2022-03-03T11:30:00,1000.0,42.79,6.0312,-0.001,0.014,-0.001,66.0,69.0,67.0,12.3,1504.7,305.3,-0.6,-0.4,967.402,13.29,0.014,355.9
04,2022-03-03T12:00:00,1000.0,42.79,6.0312,-0.011,0.01,-0.012,66.0,68.0,64.0,12.3,1504.7,304.8,-0.6,-0.4,967.349,13.3,0.014,312.3
04,2022-03-03T12:30:00,1000.0,42.79,6.0312,-0.012,0.024,-0.004,66.0,70.0,66.0,12.3,1504.7,307.7,-0.6,-0.5,967.372,13.3,0.026,333.4
04,2022-03-03T13:00:00,1000.0,42.79,6.0312,-0.012,0.018,-0.021,66.0,69.0,66.0,12.3,1504.7,312.3,-0.5,-0.4,967.283,13.3,0.021,326.3
04,2022-03-03T13:30:00,1000.0,42.79,6.0312,-0.004,0.011,0.003,67.0,69.0,67.0,12.3,1504.8,316.3,-0.6,-0.4,967.271,13.31,0.011,340.0
04,2022-03-03T14:00:00,1000.0,42.79,6.0312,-0.006,0.023,0.003,69.0,71.0,67.0,12.3,1504.7,320.1,-0.5,-0.4,967.248,13.3,0.023,345.4
04,2022-03-03T14:30:00,1000.0,42.79,6.0312,0.005,0.012,-0.01,66.0,69.0,67.0,12.3,1504.7,325.6,-0.5,-0.4,967.265,13.3,0.013,22.6
04,2022-03-03T15:00:00,1000.0,42.79,6.0312,0.002,0.005,0.008,67.0,67.0,62.0,12.3,1504.7,325.7,-0.5,-0.4,967.225,13.3,0.005,21.8
04,2022-03-03T15:30:00,1000.0,42.79,6.0312,0.02,0.011,0.005,66.0,69.0,65.0,12.3,1504.8,325.9,-0.5,-0.4,967.228,13.31,0.022,61.2
04,2022-03-03T16:00:00,1000.0,42.79,6.0312,0.016,0.01,-0.005,67.0,69.0,66.0,12.3,1504.8,323.9,-0.5,-0.4,967.242,13.31,0.018,58.0
04,2022-03-03T16:30:00,1000.0,42.79,6.0312,0.021,-0.002,-0.008,68.0,66.0,64.0,12.3,1504.8,324.8,-0.5,-0.4,967.282,13.31,0.021,95.4
04,2022-03-03T17:00:00,1000.0,42.79,6.0312,0.026,-0.006,0.004,65.0,68.0,68.0,12.3,1504.7,324.8,-0.5,-0.4,967.312,13.3,0.026,103.0
04,2022-03-03T17:30:00,1000.0,42.79,6.0312,0.012,-0.022,-0.006,68.0,71.0,64.0,12.3,1504.7,314.4,-0.5,-0.4,967.31,13.29,0.025,151.4
04,2022-03-03T18:00:00,1000.0,42.79,6.0312,0.004,-0.022,0.01,67.0,69.0,68.0,12.3,1504.7,307.8,-0.5,-0.4,967.349,13.29,0.022,169.7
04,2022-03-03T18:30:00,1000.0,42.79,6.0312,0.011,-0.027,-0.004,66.0,70.0,65.0,12.3,1504.7,307.6,-0.5,-0.4,967.387,13.3,0.029,157.8
04,2022-03-03T19:00:00,1000.0,42.79,6.0312,0.017,-0.013,0.006,67.0,69.0,67.0,12.3,1504.8,308.5,-0.5,-0.4,967.397,13.31,0.021,127.4
04,2022-03-03T19:30:00,1000.0,42.79,6.0312,-0.005,-0.021,0.001,67.0,67.0,65.0,12.3,1504.8,303.9,-0.5,-0.3,967.419,13.31,0.021,193.4
04,2022-03-03T20:00:00,1000.0,42.79,6.0312,0.0,-0.024,0.0,65.0,69.0,65.0,12.3,1504.7,300.1,-0.5,-0.4,967.4,13.3,0.024,180.0
04,2022-03-03T20:30:00,1000.0,42.79,6.0312,-0.002,-0.015,0.01,65.0,67.0,64.0,12.3,1504.8,298.4,-0.5,-0.4,967.414,13.31,0.015,187.6
04,2022-03-03T21:00:00,1000.0,42.79,6.0312,-0.011,-0.013,0.005,65.0,69.0,67.0,12.3,1504.8,295.8,-0.5,-0.4,967.433,13.31,0.017,220.2
